User: anonymous   Login
Location: Caltech
(34.1382°N, 118.1253°W)
Time: 18:44:35
(UTC-08:00)
Language:

Meteor 2-4 Rocket - Orbit

View from above orbital plane
View from above orbital plane
View from above satellite
View from above satellite

Ground track
Ground track

The orbit data is extracted from the following two-line orbital elements,

1 11289U 79021B   14326.51391874  .00000174  00000-0  86650-4 0  7724
2 11289 081.2469 358.8951 0075793 015.2619 143.0805 14.11462333838555
Epoch (UTC): 22 November 2014 12:20:02
Eccentricity: 0.0075793
inclination: 81.2469°
perigee height: 799 km
apogee height: 909 km
right ascension of ascending node: 358.8951°
argument of perigee: 15.2619°
revolutions per day: 14.11462333
mean anomaly at epoch: 143.0805°
orbit number at epoch: 83855

The dashed part of the orbit path shows where the satellite is in the earth's shadow,  

DLR